Weather in Iași

Romania     47°09′19″N   27°35′44″E
temp.,
°C
wind,
m/s
gust,
m/s
humid.,
%
clouds,
%
prec.,
mm/h
press.,
hPa
HPBL,
m
13 may, thu
thu1300:00+11s3876100 0.1 1011363
03:00+10ese398995 0.3 1010386
06:00+9se41182100 0.0 1008404
09:00+11sse51271100 0.0 1007676
12:00+14sse61169100 0.0 1007864
15:00+15sse81068100 0.0 10061035
18:00+16sse7107062 0.0 10051100
21:00+12ese34906 0.0 100561
14 may, fri
fri1400:00+11se488794 0.0 1005193
03:00+9se2492100 0.0 100571
06:00+9se2291100 0.0 100546
09:00+11se2493100 1.1 1006217
12:00+12ssw2391100 1.4 1007258
15:00+13w4894100 2.5 1008411
18:00+15w127797 1.1 1008280
21:00+12sse2286100 1.1 100915
15 may, sat
sat1500:00+10s11865 0.0 101011
03:00+9ssw118293 0.0 101110
06:00+9ssw118196 0.0 101110
09:00+14sse1270100 0.0 1013240
12:00+20ne115493 0.0 1012961
15:00+22ene23473 0.0 10111715
18:00+21e345547 0.0 1010750
21:00+16ese227392 0.2 101121
16 may, sun
sun1600:00+14ese347843 0.1 101073
03:00+14se228296 0.1 101118
06:00+13ese22875 0.0 101112
09:00+18se3467100 0.0 1011411
12:00+21se4654100 0.0 10111162
15:00+23se454874 0.0 10101685
18:00+23se355266 0.0 10082028
21:00+17ese22717 0.0 100816
17 may, mon
mon1700:00+15s1173100 0.0 100811
03:00+14nw227998 0.0 100812
06:00+13nw229042 0.0 100827
09:00+18nw56745 0.0 1009540
12:00+20nw666718 0.1 10081018
15:00+20wnw456517 0.1 1008855
18:00+22n335714 0.6 10071353
21:00+17e11760 0.6 100711